RH
54 57 58 55 52 51 52 54 55 54 52 50 47 44 40 36 31 26 22 18 16 14 12 10 7 4 2 2 2 2 2 2 2 2 1 1 0 1 1 1 2 2 2 3 3 3 3 2 2 2 2 3 4 4 5 6 7 8 8 8 8 8 8 8 8 8 8 8 8 8 8 8 8 8 8 8 9 9 10 10 10 10 10 10 10 10 10 10 10 10 10 10 10 10 10 10 10 10 10 10 10 10 10
46 48 47 44 40 39 40 42 43 44 43 42 39 35 31 27 24 20 16 14 13 12 10 8 5 3 2 2 2 2 2 2 2 2 1 1 1 1 1 2 2 2 3 3 3 3 3 2 2 3 3 4 4 6 6 7 8 8 8 8 8 8 8 8 8 8 8 8 8 8 8 8 8 8 9 9 9 10 10 10 10 10 10 10 10 10 10 10 10 10 10 10 10 10 10 10 10 10 10 10 10 10 10
38 38 37 34 30 27 27 30 31 32 33 32 30 26 24 20 18 15 13 12 11 10 8 6 4 2 2 2 2 2 2 2 2 1 1 1 1 1 2 2 2 3 3 3 3 3 3 2 3 3 4 4 6 7 8 8 8 8 8 8 8 8 8 8 8 8 8 8 8 8 8 8 9 9 9 10 10 10 10 10 10 10 10 10 10 10 10 10 10 10 10 10 10 10 10 10 10 10 10 10 10 10 10
30 30 28 25 22 19 18 20 22 24 24 24 22 20 18 16 14 12 11 11 10 8 6 4 3 2 2 2 2 2 2 2 1 1 1 1 1 2 2 2 3 3 3 3 3 3 3 3 3 3 4 6 7 8 8 8 8 8 8 8 8 8 8 8 9 9 9 9 9 9 9 9 10 10 10 10 10 10 10 10 10 10 10 10 10 10 10 10 10 10 10 10 10 10 10 10 10 10 10 10 11 11 11
24 23 21 18 16 14 13 15 16 18 20 18 17 16 14 13 12 11 11 11 10 7 4 3 2 2 2 2 2 2 2 2 1 1 1 1 1 2 2 3 3 3 3 3 3 3 3 3 3 4 6 7 8 9 9 9 8 8 8 8 8 8 9 9 10 10 9 9 9 10 10 10 10 10 10 10 10 10 10 10 10 10 10 10 10 10 10 10 10 10 10 10 10 10 10 10 11 11 11 11 11 11 12
18 17 16 14 12 11 11 12 14 16 16 15 14 14 13 12 11 10 11 10 8 6 4 3 2 2 2 2 2 2 2 1 1 1 1 1 2 2 2 3 3 3 3 3 3 3 3 3 4 5 7 8 9 10 10 9 8 8 8 8 9 9 10 10 10 10 10 10 10 10 10 10 10 10 10 10 10 10 10 10 10 10 10 10 10 10 10 10 10 11 11 11 11 11 11 11 11 11 11 12 12 12 12
14 14 13 12 11 11 11 12 13 14 14 14 13 13 12 11 10 10 10 9 7 5 3 2 2 2 2 2 2 2 2 1 1 1 1 2 2 2 3 3 3 3 3 3 3 3 3 4 5 7 8 9 10 10 9 9 8 8 8 9 10 10 10 10 10 10 10 10 10 10 10 10 10 10 10 10 10 10 10 10 10 10 10 10 11 11 11 11 11 11 11 11 11 11 12 12 12 12 12 12 12 12 12
12 12 12 11 11 11 11 12 13 13 12 12 12 12 11 11 10 10 9 8 6 4 2 2 2 2 2 2 2 2 1 1 1 1 2 2 2 3 3 3 3 3 3 3 3 3 4 5 6 8 9 10 10 9 8 8 8 9 10 10 10 10 10 10 10 10 10 10 10 10 10 10 10 10 10 10 10 10 10 10 10 11 11 11 11 11 11 11 12 12 12 12 12 12 12 12 12 12 12 13 13 13 13
11 11 11 11 10 10 11 12 12 12 12 11 11 10 10 10 10 8 8 6 4 3 2 2 2 2 2 2 2 2 1 1 1 1 2 2 3 3 3 3 3 3 3 3 3 4 5 6 8 9 10 10 9 9 9 9 9 10 10 10 10 10 10 10 10 10 10 10 10 10 11 11 11 11 11 11 11 11 11 11 11 11 11 11 12 12 12 12 12 12 12 12 12 12 12 13 13 13 13 13 13 14 14
10 10 10 10 10 10 11 11 11 11 10 10 10 10 10 9 9 8 7 5 4 2 2 2 2 2 2 2 2 1 1 1 1 2 2 2 3 3 3 3 3 3 3 3 4 5 6 8 8 10 10 10 10 9 9 10 10 10 10 10 10 10 10 10 10 11 11 11 11 11 11 11 11 11 11 11 11 11 11 11 11 12 12 12 12 12 12 12 12 12 13 13 13 13 13 13 13 14 14 14 14 14 14
10 10 10 10 10 10 10 10 10 10 10 9 8 8 8 8 8 7 6 4 3 2 2 2 2 2 2 2 2 1 1 1 2 2 2 3 3 3 3 3 3 3 3 4 4 6 7 8 9 10 10 10 10 10 10 10 10 10 10 10 10 10 11 11 11 11 11 11 11 11 11 11 11 11 11 11 11 11 11 12 12 12 12 12 12 13 13 13 13 13 13 13 14 14 14 14 14 14 14 14 14 15 15
10 9 9 9 10 10 10 10 10 9 8 8 8 8 8 8 7 6 5 3 2 2 2 2 2 2 2 2 1 1 1 1 2 2 3 3 3 3 3 3 3 3 4 4 5 6 8 9 10 10 10 10 10 10 10 10 10 10 10 10 10 11 11 11 11 11 11 11 11 11 11 11 11 11 11 12 12 12 12 12 12 12 13 13 13 14 14 14 14 14 14 14 14 14 14 14 15 15 15 15 15 16 16
9 8 8 8 9 10 9 8 8 8 7 7 7 8 8 7 6 5 4 3 2 2 2 2 2 2 2 2 1 1 1 2 2 2 3 3 3 3 3 3 3 4 4 5 6 8 8 10 10 10 10 10 10 10 10 10 10 10 10 11 11 11 11 11 11 12 12 12 12 12 12 12 12 12 12 12 12 12 12 13 13 13 14 14 14 14 14 14 14 15 15 15 15 15 15 15 16 16 16 16 16 16 17
8 8 8 8 9 9 8 8 7 6 6 6 7 7 7 7 6 4 3 2 2 2 2 2 3 2 2 1 1 1 2 2 2 3 3 3 4 4 3 3 4 4 5 6 7 8 10 10 10 10 10 10 10 10 10 10 10 11 11 11 11 11 11 11 12 12 12 12 12 12 12 12 12 12 12 12 12 13 13 13 14 14 14 14 15 15 15 15 15 16 16 16 16 16 16 16 16 17 17 17 17 18 18
9 9 9 9 8 8 7 6 6 5 6 6 6 7 7 6 5 4 3 2 2 2 2 3 2 2 2 1 1 1 2 2 3 3 3 4 4 4 3 3 4 4 5 7 8 9 10 10 10 10 10 10 10 10 11 11 11 11 11 11 11 11 12 12 12 12 12 12 12 12 12 12 12 12 12 13 13 13 14 14 14 14 15 15 15 16 16 16 16 16 16 16 16 17 17 17 17 18 18 18 18 18 18
10 10 10 9 8 7 6 5 4 5 5 6 6 6 6 5 4 3 2 2 2 2 3 3 2 2 1 1 1 2 2 2 3 3 4 4 4 4 3 4 4 5 6 8 8 10 10 10 10 10 10 10 11 11 11 11 11 11 11 12 12 12 12 12 12 12 12 12 12 12 12 12 12 12 13 13 13 14 14 14 15 15 15 16 16 16 16 16 16 16 17 17 17 17 17 18 18 18 18 18 18 18 18
10 10 10 8 8 6 4 4 4 4 5 6 6 6 5 4 3 2 2 2 2 3 3 2 2 2 1 1 2 2 2 3 3 3 4 4 4 4 4 4 5 6 7 8 9 10 10 10 10 10 10 11 11 11 11 11 12 12 12 12 12 12 12 12 12 12 12 12 12 12 12 12 13 13 13 13 14 14 14 15 15 15 16 16 16 16 16 16 16 17 17 17 17 17 17 18 18 18 18 18 18 18 18
10 10 10 8 7 5 4 4 4 4 5 6 6 5 4 3 3 2 2 2 3 3 3 2 2 1 1 2 2 2 3 3 3 4 4 4 4 4 4 5 6 7 8 9 10 10 10 10 10 10 11 11 11 11 12 12 12 12 12 12 12 12 13 13 13 13 12 13 13 13 13 13 13 13 13 14 14 14 15 15 16 16 16 16 16 16 16 17 17 17 17 17 17 17 17 17 17 18 18 18 18 18 18
10 10 9 8 6 4 3 3 4 4 5 5 5 4 4 3 2 2 2 3 3 3 3 2 2 1 1 2 2 3 3 3 4 4 4 4 4 4 4 5 6 8 8 10 10 10 10 10 10 10 11 11 12 12 12 12 12 12 12 13 13 13 13 13 13 13 13 13 13 13 13 13 13 14 14 14 15 15 15 16 16 16 16 16 16 16 17 17 17 17 17 17 17 17 17 17 17 17 17 17 17 18 18
10 10 8 7 6 4 3 3 3 4 4 4 4 4 3 2 2 2 3 3 3 3 2 2 1 1 2 2 2 3 3 4 4 4 4 4 4 4 5 6 8 8 10 10 10 10 10 10 10 11 11 12 12 12 12 12 12 12 13 13 13 13 13 13 13 13 13 13 14 14 14 14 14 14 14 15 15 16 16 16 16 16 16 16 16 16 16 17 16 16 16 16 16 16 16 17 17 17 17 17 17 17 18
10 10 8 7 5 4 3 3 3 4 4 4 4 3 2 2 2 3 3 3 3 3 2 2 1 2 2 2 3 3 4 4 4 4 4 4 5 5 6 7 8 9 10 10 10 10 10 10 11 11 11 12 12 12 12 12 12 12 13 13 13 14 14 14 14 14 14 14 14 14 14 14 14 14 15 15 16 16 16 16 16 16 16 16 16 16 16 16 16 16 16 16 16 16 16 16 17 17 17 17 17 18 18
10 8 8 6 5 4 3 2 3 3 3 3 3 2 2 2 3 3 3 3 3 2 2 2 2 2 2 3 3 4 4 4 4 4 4 4 5 6 7 8 9 10 10 10 10 10 10 11 11 11 12 12 12 12 12 12 12 13 13 13 14 14 14 14 14 14 14 14 14 14 14 14 14 15 15 15 16 16 16 16 16 16 16 16 16 16 16 16 16 16 16 16 16 16 16 16 17 17 17 17 18 18 18
10 8 7 6 4 3 2 2 2 3 3 3 2 2 2 2 3 3 3 3 3 2 2 2 2 2 2 3 4 4 4 4 4 4 4 5 6 7 8 9 10 10 10 10 10 10 10 11 11 11 12 12 12 12 12 12 13 13 13 14 14 14 14 14 14 14 14 14 14 15 15 15 15 15 15 15 15 15 16 16 16 16 16 16 16 16 16 16 16 16 16 16 16 16 16 17 17 17 18 18 18 18 18
10 8 7 5 4 3 2 2 2 2 2 2 2 2 2 3 3 3 3 3 2 2 2 2 2 2 3 3 4 4 4 4 4 5 5 6 6 8 9 10 10 10 10 10 10 10 11 11 11 12 12 12 12 12 12 13 13 13 14 14 14 14 14 14 14 14 14 14 14 15 15 15 15 15 15 15 15 15 15 15 15 15 15 15 15 15 15 15 15 16 16 16 16 17 17 17 18 18 18 18 18 18 18
10 8 6 5 4 2 2 2 2 2 2 2 2 2 2 3 3 3 3 3 2 2 2 2 2 2 3 4 4 4 4 4 5 5 5 6 7 8 10 10 11 11 11 11 11 11 11 11 12 12 12 12 12 12 13 13 13 13 14 14 14 14 14 14 14 14 14 14 14 14 14 15 15 15 15 15 15 15 15 15 15 15 15 15 15 15 15 15 16 16 16 16 17 17 18 18 18 18 18 18 18 18 18
10 8 6 4 3 2 2 2 2 2 2 2 2 2 3 3 3 3 3 2 2 2 2 2 2 3 4 4 4 4 5 5 5 5 6 7 8 9 10 10 11 11 11 11 11 11 11 12 12 12 12 12 12 12 13 13 13 13 14 14 14 14 14 14 14 14 14 14 14 14 14 14 14 14 14 14 14 14 14 14 14 15 15 15 15 15 15 16 16 16 17 17 17 18 18 18 18 18 18 18 18 17 17
9 8 5 4 3 2 2 2 2 2 2 2 2 3 3 3 3 3 3 2 2 2 2 2 3 3 4 4 4 5 5 5 5 6 7 8 8 10 10 11 11 11 11 11 11 11 12 12 12 12 12 12 12 12 13 13 13 13 13 14 14 14 14 14 14 14 14 14 14 14 14 14 14 14 14 14 14 14 14 14 14 14 14 15 15 15 16 16 17 17 17 18 18 18 18 18 18 18 17 17 16 16 16
8 7 5 3 2 2 2 2 2 2 2 2 2 3 3 3 3 3 2 2 2 2 2 3 3 4 4 4 5 5 5 5 6 6 8 8 10 10 11 11 11 11 11 11 11 12 12 12 12 12 12 12 12 12 13 13 13 13 13 13 14 14 14 14 14 14 14 14 14 14 14 14 14 14 14 14 14 14 14 14 14 14 15 15 16 16 16 17 17 18 18 18 18 18 18 17 17 17 16 16 16 16 15
8 6 4 3 2 2 2 2 2 2 2 2 3 3 3 4 3 3 2 2 2 2 2 3 4 4 4 5 5 5 5 6 6 7 8 9 10 10 11 11 11 11 11 11 12 12 12 12 12 13 13 13 13 13 13 13 13 13 13 14 14 14 14 14 14 14 14 14 14 14 14 14 14 14 14 14 14 14 14 14 14 15 15 16 16 16 17 17 18 18 18 18 17 17 17 16 16 16 15 15 15 15 16
8 6 3 2 2 2 2 2 2 2 2 3 3 3 4 4 3 2 2 2 2 2 3 3 4 4 5 5 5 5 6 6 7 8 8 10 10 11 11 11 11 11 11 11 12 12 12 12 13 13 13 13 13 13 13 13 13 13 14 14 14 14 14 14 14 14 14 14 14 14 14 14 14 14 13 14 14 14 14 14 15 15 16 16 16 17 17 18 18 17 17 17 17 16 16 16 15 15 15 15 16 16 17
8 5 3 2 2 2 2 2 2 2 2 3 3 4 4 4 3 2 2 2 2 3 3 4 4 5 5 5 6 6 6 7 8 8 10 10 11 11 11 11 11 11 11 11 12 12 12 13 13 13 14 14 13 13 13 13 13 14 14 14 14 14 14 14 14 14 14 14 14 14 13 13 13 13 13 13 14 14 14 15 15 16 16 17 17 17 17 17 17 17 16 16 16 15 15 15 15 15 15 16 17 18 20
7 4 2 2 2 2 2 2 2 2 3 3 3 4 4 3 3 2 2 2 3 3 4 4 4 5 5 6 6 6 7 8 8 10 10 10 11 11 11 11 11 11 11 12 12 12 13 13 14 14 14 14 14 14 14 13 14 14 14 14 14 14 13 13 13 13 13 13 13 13 13 13 13 13 13 14 14 14 15 16 16 16 17 17 17 17 17 17 16 16 16 15 15 14 14 15 15 16 17 18 20 21 23
7 4 2 2 2 2 2 2 2 2 3 3 4 4 4 3 2 2 2 2 3 3 4 4 5 5 6 6 6 7 8 8 9 10 10 11 11 11 12 12 11 11 11 12 12 13 13 14 14 14 14 14 14 14 14 13 13 13 13 13 13 13 12 12 12 12 12 13 12 12 12 12 13 13 13 14 14 15 16 16 17 17 17 17 17 16 16 16 15 15 15 15 15 15 15 16 17 18 20 21 23 24 25
6 3 2 2 2 2 2 2 2 2 3 4 4 4 3 3 2 2 2 3 3 3 4 5 5 6 6 6 7 8 8 9 10 10 10 11 11 12 12 12 12 12 12 12 12 13 14 14 14 14 14 14 14 14 13 13 13 13 13 13 12 12 12 12 12 12 12 12 12 12 12 12 13 13 14 14 15 16 16 17 17 17 17 17 16 16 16 15 15 15 15 16 16 17 18 19 20 21 23 24 24 25 25
6 3 2 2 2 2 2 2 2 3 3 4 4 4 3 2 2 2 3 3 3 4 4 5 6 6 6 7 7 8 8 9 10 10 11 11 12 12 12 12 12 12 12 12 13 14 14 14 14 14 14 14 14 13 13 13 12 12 12 12 12 12 12 12 12 12 12 12 12 12 12 12 13 14 14 15 16 16 17 17 17 17 17 16 16 16 15 15 16 16 17 18 18 20 21 22 23 24 24 25 24 24 23
5 3 2 2 2 2 2 2 2 3 4 4 4 3 3 2 2 3 3 3 4 4 5 5 6 6 6 7 8 8 8 10 10 10 11 12 12 12 13 13 13 12 12 13 13 14 14 14 14 14 14 14 13 13 12 12 12 12 12 12 12 12 12 11 11 11 11 11 12 12 12 13 14 14 15 16 16 17 17 17 17 17 16 16 16 16 16 17 18 18 19 20 21 22 24 24 24 25 24 24 23 22 20
5 3 2 2 2 2 2 2 2 3 4 4 4 3 2 2 2 3 3 4 4 4 5 6 6 6 7 8 8 8 9 10 10 10 11 12 12 12 13 13 13 13 13 13 13 14 14 14 14 14 13 13 13 12 12 12 12 12 12 12 12 11 11 11 11 11 11 11 12 12 13 14 14 15 16 16 16 17 17 17 16 16 16 16 16 17 18 19 20 21 22 23 24 24 25 25 24 24 23 21 20 18 17
5 3 2 2 2 2 2 2 3 4 4 4 3 3 2 2 3 3 4 4 4 5 6 6 6 7 7 8 8 8 10 10 10 10 11 12 12 12 12 13 13 13 13 13 14 14 14 14 13 13 12 12 12 12 12 12 12 11 11 11 11 11 11 11 11 11 11 12 12 13 14 14 15 16 16 16 16 16 16 16 16 17 17 18 18 20 21 22 23 24 24 24 25 26 25 24 23 22 20 19 17 16 15
4 2 2 2 2 2 2 2 3 4 4 4 3 2 2 3 3 4 4 4 5 5 6 6 7 7 8 8 8 10 10 10 10 11 11 12 12 12 12 12 13 13 13 13 14 14 13 13 12 12 12 12 12 12 12 11 11 11 11 11 11 11 11 11 11 11 12 12 13 14 15 16 16 16 16 16 16 16 16 16 17 18 19 20 21 22 23 24 24 25 26 26 25 24 24 22 21 19 18 16 15 14 13
4 2 2 2 2 2 2 3 4 4 4 3 3 2 3 3 4 4 4 5 5 6 6 7 7 8 8 8 10 10 10 10 10 10 11 11 11 12 12 12 13 13 13 13 13 13 13 12 12 12 12 12 12 11 11 11 11 11 11 11 11 11 11 11 11 12 12 13 14 15 16 16 16 16 16 16 16 16 17 18 19 20 22 23 24 24 25 26 26 26 26 25 24 23 21 20 18 17 16 14 13 12 11
4 2 2 2 2 2 3 4 4 4 4 3 2 2 3 3 4 4 5 5 6 6 7 7 8 8 9 10 10 10 10 10 10 10 10 11 11 11 12 12 12 12 13 12 12 12 12 12 11 11 11 11 11 11 11 11 12 12 11 11 11 11 11 12 12 13 14 15 16 16 16 16 16 16 16 16 16 18 19 20 22 23 24 24 26 26 26 26 26 26 24 23 22 20 19 18 16 15 14 12 11 10 8
3 2 2 2 2 2 3 4 4 4 3 3 2 3 3 4 4 4 5 6 6 6 7 8 8 8 10 10 10 10 10 10 10 10 10 10 11 11 12 12 12 12 12 12 12 11 11 11 11 11 11 11 11 11 11 12 12 12 12 11 11 12 12 12 13 14 15 16 16 17 16 16 16 16 16 17 19 20 22 23 24 24 26 26 26 26 26 26 25 24 23 21 20 18 17 16 14 13 11 10 8 7 5
3 2 2 2 2 3 4 4 4 4 3 3 3 3 4 4 4 5 5 6 6 7 7 8 8 8 10 10 10 10 10 10 10 10 10 10 11 11 12 12 11 11 11 11 11 10 10 10 11 11 11 11 11 11 12 12 12 12 12 12 12 12 13 14 15 16 17 17 17 17 16 16 16 17 19 20 22 23 24 24 24 26 26 26 26 26 26 24 23 22 20 19 18 16 15 13 12 10 8 7 6 4 3
2 2 2 2 3 4 4 4 4 3 3 3 3 3 4 4 4 5 6 6 6 7 8 8 8 8 10 10 10 10 10 10 10 10 10 11 11 11 11 11 11 10 10 10 10 10 10 10 11 11 11 11 12 12 12 12 12 12 12 12 12 13 14 15 16 17 18 18 17 17 16 17 19 20 22 23 24 24 24 24 25 26 26 26 26 25 24 22 21 20 18 17 15 14 12 10 9 8 6 4 3 2 2
2 2 2 3 4 4 4 4 4 3 3 3 3 4 4 4 5 5 6 6 7 7 8 8 8 8 9 10 10 10 10 10 10 10 11 11 11 11 11 10 10 10 10 10 10 10 10 10 11 11 12 12 12 12 12 12 12 12 12 13 14 14 16 17 18 18 18 18 17 18 18 20 22 24 24 25 25 24 24 25 26 26 26 26 24 23 22 20 19 17 16 14 13 11 10 8 6 5 3 2 2 1 1
2 2 3 4 4 4 4 4 3 3 3 3 4 4 4 5 5 6 6 6 7 7 8 8 8 8 9 10 10 10 10 10 10 10 11 11 11 10 10 10 9 8 8 9 10 10 10 11 11 12 12 12 12 13 12 12 12 13 13 14 15 16 17 18 18 18 18 18 19 20 22 24 26 26 26 26 25 25 25 26 26 26 25 24 22 21 20 18 17 15 14 12 10 8 7 5 4 3 2 1 1 1 1
2 2 3 4 4 5 4 4 3 3 3 3 4 4 5 5 6 6 6 6 7 7 8 8 8 8 9 10 10 10 10 10 10 11 11 10 10 10 9 8 8 8 8 8 10 10 11 11 12 12 13 13 13 13 13 13 13 13 14 15 16 17 18 18 18 18 18 20 22 24 26 27 27 26 26 25 25 26 26 26 26 24 24 22 20 19 18 16 15 13 11 10 8 6 4 3 2 2 1 1 1 1 1
2 3 4 4 5 4 4 3 3 3 3 4 4 4 5 6 6 6 6 7 7 7 8 8 8 9 10 10 10 10 10 10 11 11 10 10 10 8 8 8 8 8 8 9 10 11 12 12 13 13 13 14 14 14 14 14 14 14 15 16 17 18 19 18 19 20 22 24 26 28 29 28 27 26 26 26 26 26 26 26 24 24 22 20 18 17 16 14 12 10 8 7 5 4 2 2 1 1 1 1 1 1 1
3 4 4 5 5 4 4 3 3 3 3 4 4 5 6 6 6 6 6 7 7 8 8 8 9 10 10 10 10 10 10 10 10 10 10 9 8 8 8 7 8 8 9 10 11 12 12 13 14 14 14 14 14 14 14 14 14 15 16 17 18 19 19 19 20 23 26 29 30 31 30 28 26 26 26 26 26 26 26 24 23 22 20 18 16 15 13 11 10 8 6 4 3 2 1 1 1 1 1 1 1 1 2
3 4 5 5 5 4 3 3 3 3 4 4 5 5 6 6 6 6 7 7 7 8 8 8 9 10 10 10 10 10 10 10 10 10 8 8 8 8 7 8 8 10 10 11 12 13 14 14 14 14 14 14 14 14 14 15 15 16 17 18 19 19 19 21 24 28 32 33 33 31 29 28 27 26 27 27 27 26 24 23 21 19 18 16 14 12 10 8 7 5 4 2 2 1 1 1 1 1 1 1 2 2 2
4 4 5 5 4 4 3 3 3 4 4 4 5 6 6 6 6 6 7 7 8 8 8 8 9 10 10 10 10 10 10 10 9 8 8 8 8 8 8 8 10 11 12 13 14 14 14 15 15 15 15 15 14 15 15 16 16 18 18 19 19 20 21 25 30 34 36 35 33 31 29 28 28 28 28 27 26 24 23 21 19 17 16 14 12 10 8 6 4 3 2 2 1 1 1 1 1 1 2 2 2 2 2
4 5 5 5 4 3 3 3 3 4 4 4 5 6 6 6 6 7 7 7 8 8 8 9 10 10 10 10 10 10 10 9 8 8 8 8 8 8 9 10 11 12 12 14 14 14 15 16 16 16 15 15 15 15 16 17 18 19 20 20 20 22 26 31 35 38 38 36 33 31 29 29 28 28 28 26 24 23 21 19 17 15 13 11 10 7 6 4 3 2 1 1 1 1 1 1 2 2 2 2 2 2 2
4 5 5 4 4 3 3 3 4 4 4 5 5 6 6 6 6 7 7 8 8 8 9 10 10 10 10 10 10 10 9 8 8 8 8 10 10 10 10 11 12 13 14 15 15 15 16 16 16 16 16 15 15 16 17 18 19 20 21 22 23 26 31 36 40 41 40 36 34 31 30 29 28 28 26 24 22 20 18 17 15 13 11 8 7 5 3 2 2 1 1 1 1 1 2 2 2 2 2 2 2 2 2
5 5 5 4 4 3 3 3 4 4 5 6 6 6 6 7 7 7 7 8 8 9 10 10 10 10 10 10 9 8 8 8 8 9 10 10 11 11 12 12 13 14 15 16 16 16 17 17 17 16 16 16 16 17 18 20 21 22 22 24 27 31 36 41 43 43 40 36 34 31 30 29 28 26 24 22 20 18 16 14 12 10 8 6 4 3 2 2 1 1 1 1 1 2 2 2 2 2 2 2 2 2 2
5 5 4 4 4 3 3 4 4 5 5 6 7 7 7 7 7 8 8 8 9 10 10 10 10 10 10 9 9 9 9 10 10 10 11 11 12 12 13 14 15 16 16 17 17 18 18 18 17 17 17 17 18 19 20 21 22 23 24 28 32 36 40 44 44 43 40 36 33 31 29 28 26 24 22 20 18 16 14 12 10 8 6 4 3 2 1 1 1 1 1 2 2 2 2 2 2 2 2 2 2 2 2
5 5 4 4 4 4 4 4 5 5 6 6 7 8 8 8 8 8 8 9 10 10 10 10 10 10 10 10 10 10 10 10 11 12 12 12 13 13 14 16 16 17 17 18 18 18 19 19 18 18 18 19 20 21 22 23 24 26 28 32 36 40 42 44 44 42 38 34 32 29 28 26 24 22 20 18 16 14 12 10 8 6 4 2 2 1 1 1 1 2 2 2 2 2 2 2 2 2 2 2 2 2 2
5 4 4 4 4 4 4 5 5 6 6 7 7 8 8 8 8 8 10 10 10 10 10 10 10 10 10 10 11 11 12 12 13 13 14 14 15 15 16 16 17 17 18 19 19 20 20 20 20 20 19 21 22 23 24 25 26 29 32 36 39 42 42 43 42 39 35 32 30 28 26 24 22 20 18 16 14 12 10 8 6 4 2 2 1 1 1 1 2 2 2 2 2 2 2 2 2 2 2 2 3 3 3
5 4 4 4 4 4 5 5 6 6 7 7 8 8 8 8 9 10 10 10 10 10 10 10 10 10 11 11 12 12 12 13 14 15 16 16 17 17 18 18 19 20 21 21 21 20 20 20 21 21 20 22 24 24 26 27 29 32 36 38 40 40 40 40 38 36 32 29 28 26 24 22 20 18 16 14 12 10 7 5 4 2 2 1 1 1 2 2 2 2 2 2 2 2 2 2 2 3 3 3 3 3 3
4 4 4 4 4 5 5 6 6 7 8 8 8 8 9 10 10 10 10 10 10 10 10 11 11 12 12 12 12 13 14 15 16 18 18 18 18 18 19 20 20 21 21 21 21 21 21 21 21 21 22 23 24 25 26 28 32 35 38 38 38 38 38 36 34 32 29 27 26 24 22 20 18 16 14 12 10 7 5 4 2 2 1 1 1 2 2 2 2 2 2 2 2 2 2 3 3 3 3 3 3 3 3
4 4 4 4 4 5 6 6 7 8 8 8 9 10 10 10 10 10 10 10 11 11 11 11 12 12 12 13 14 14 16 17 18 19 19 19 19 20 20 20 21 22 22 22 22 22 22 22 22 22 22 23 24 24 26 30 34 36 38 37 36 35 34 33 31 29 27 26 24 22 20 18 16 14 12 10 7 5 3 2 2 1 1 1 2 2 2 2 2 2 2 2 2 3 3 3 3 3 3 3 3 3 3
4 4 4 4 5 5 6 7 8 8 8 10 10 10 11 11 11 11 11 11 11 11 12 12 12 13 13 14 15 17 18 19 20 20 20 20 20 20 21 21 22 22 22 22 23 23 23 22 22 22 22 22 24 25 28 32 35 37 38 37 35 33 32 31 29 27 26 24 22 20 18 16 14 12 10 7 5 3 2 2 1 1 1 2 2 2 2 2 2 2 2 3 3 3 3 3 3 3 3 3 3 3 3
Wind_Speed
26 27 27 27 27 26 26 26 26 25 25 24 24 23 22 20 19 17 16 15 15 14 13 13 13 12 12 11 10 10 9 8 7 7 6 6 6 6 6 5 3 2 2 1 1 1 1 1 1 2 2 2 2 2 2 2 3 3 3 3 3 4 4 4 4 4 4 4 5 5 5 5 5 5 5 5 5 5 6 6 6 6 7 7 7 7 7 8 8 8 8 8 8 8 8 8 8 8 7 8 8 8 8
26 26 26 26 25 24 24 24 24 24 23 23 22 21 20 19 18 16 15 14 14 13 13 13 12 12 11 11 10 9 8 7 7 6 6 6 6 6 5 4 3 2 1 1 1 1 0 1 2 2 3 3 2 2 2 3 3 3 3 3 4 4 4 4 4 4 4 4 4 4 5 5 5 5 5 5 5 5 6 6 6 6 7 7 7 7 8 8 8 8 8 8 8 8 8 8 8 8 8 8 8 8 8
25 25 25 24 23 22 21 21 21 21 21 21 21 20 18 18 17 15 14 13 13 12 12 12 12 11 11 10 9 9 8 7 6 6 6 6 6 6 5 3 2 1 0 0 1 1 1 2 2 3 3 3 3 2 3 3 4 4 4 4 4 4 4 4 4 4 4 4 4 4 4 5 5 5 5 5 5 6 6 6 6 6 7 7 7 7 7 8 8 8 8 8 8 8 8 8 8 8 8 8 9 9 9
24 24 23 23 21 20 19 19 19 19 19 19 18 18 17 17 16 15 13 12 12 12 12 12 11 11 10 10 9 8 7 7 6 6 6 6 6 5 4 2 1 0 0 1 1 1 1 2 3 3 4 4 3 2 2 4 4 4 4 4 4 4 4 4 4 4 4 4 4 4 4 5 5 5 5 5 6 6 6 6 6 6 7 7 7 7 7 7 8 8 8 8 8 8 8 8 8 9 9 9 9 9 9
23 22 22 21 20 18 17 16 16 17 17 17 17 16 16 16 15 14 12 11 11 12 12 12 11 10 10 9 8 8 7 6 6 6 6 6 6 4 3 2 0 0 1 1 2 2 2 2 3 4 4 4 3 3 3 3 4 4 4 4 4 4 4 4 4 4 5 4 4 4 4 5 5 5 5 6 6 6 6 6 6 6 7 7 7 7 7 7 7 8 8 8 8 8 8 8 9 9 9 9 10 10 10
21 21 20 20 19 17 16 15 15 16 16 16 16 16 16 16 15 13 12 12 12 13 12 11 11 10 10 9 8 7 6 6 6 6 6 6 5 4 2 1 0 1 1 2 2 2 2 3 4 4 5 5 4 3 3 3 3 3 4 4 4 4 4 4 5 5 5 4 4 4 5 5 5 5 5 6 6 6 6 6 6 6 7 7 7 7 7 7 7 8 8 8 8 8 9 9 9 9 10 10 10 10 11
20 20 20 19 18 16 15 14 15 15 16 15 15 15 15 15 14 13 12 12 13 13 12 11 11 10 10 9 8 7 6 6 6 6 6 5 5 3 2 1 1 1 2 3 3 2 3 4 4 5 5 5 4 4 3 2 3 3 4 4 4 4 5 5 5 5 4 4 4 4 5 5 5 5 6 6 6 6 6 6 6 7 7 7 7 7 7 7 7 8 8 8 8 9 9 9 10 10 10 10 11 11 11
20 19 19 19 18 16 15 15 15 16 15 15 14 15 15 14 13 12 12 12 13 13 12 11 11 10 9 8 7 6 6 6 6 6 6 5 4 3 2 1 2 2 3 3 3 3 3 4 5 5 5 4 4 4 3 3 4 4 4 4 5 5 5 5 5 4 4 4 4 5 5 5 5 6 6 6 6 6 6 6 6 7 7 7 7 7 7 7 8 8 8 9 9 9 10 10 10 11 11 11 12 12 12
19 20 20 19 17 16 15 16 16 16 15 14 14 15 15 14 13 12 12 12 12 12 11 11 10 9 8 7 7 6 6 6 6 5 5 5 4 2 2 2 2 3 3 3 3 3 4 4 5 5 5 4 4 4 4 4 4 4 5 5 5 5 5 5 5 4 4 4 4 5 5 5 5 6 6 6 6 6 6 6 6 7 7 7 7 7 8 8 8 8 9 9 9 10 10 11 11 11 12 12 13 13 14
20 20 20 18 17 16 16 16 16 15 14 14 14 14 14 14 13 12 12 11 11 11 11 10 9 8 7 7 6 6 6 6 5 5 5 4 3 2 2 2 3 3 4 4 4 4 4 5 5 5 4 4 4 4 4 5 5 5 5 5 5 5 5 5 4 4 4 4 5 5 5 5 5 5 6 6 6 6 6 6 6 7 7 7 8 8 8 8 9 9 9 10 10 11 11 11 12 12 13 13 14 14 15
20 20 19 18 17 16 16 16 16 15 14 14 14 14 14 14 13 12 11 11 10 10 10 9 8 8 7 6 6 6 6 5 5 5 5 4 3 2 2 3 3 3 4 4 4 4 5 5 5 5 4 4 4 4 5 5 5 5 5 5 5 5 5 4 4 4 4 4 5 5 5 5 5 5 5 6 6 6 6 6 7 7 7 7 8 8 9 9 9 10 10 11 11 11 12 12 13 13 14 14 15 15 16
20 20 19 18 16 16 16 16 15 15 14 14 14 14 14 14 13 12 11 10 10 9 9 8 8 7 7 7 6 6 6 5 5 5 5 4 3 3 3 3 3 4 4 4 4 5 5 5 5 5 4 4 4 4 5 5 5 5 5 5 5 5 4 4 4 4 4 5 5 5 5 5 5 5 5 5 6 6 6 6 7 7 8 8 8 9 9 10 10 10 11 11 12 12 13 13 14 14 15 15 16 16 16
20 20 19 17 16 16 16 16 15 15 15 15 14 14 14 14 13 12 11 10 10 9 9 8 8 7 7 7 6 6 6 5 5 5 4 4 3 3 3 3 4 4 4 4 5 5 5 5 5 5 4 4 4 5 5 5 5 5 5 5 4 4 4 4 4 4 4 5 5 5 5 5 5 5 5 5 6 6 6 7 7 8 8 9 9 9 10 10 11 11 12 12 13 13 13 14 14 15 15 16 16 17 17
20 19 18 17 16 16 16 16 15 15 15 15 15 14 14 14 13 12 11 10 10 9 9 8 8 7 7 7 6 6 6 5 5 5 4 4 4 3 4 4 4 5 5 5 5 5 5 5 5 5 5 4 4 5 5 5 5 5 4 4 4 4 4 4 4 4 5 5 5 5 5 5 5 5 5 6 6 6 7 7 8 8 9 9 10 10 10 11 11 12 12 13 13 14 14 14 15 15 16 16 17 17 18
20 19 18 17 17 16 16 16 15 15 15 15 15 15 14 14 13 12 11 11 10 10 9 8 8 7 7 7 6 6 6 5 5 5 5 4 4 4 4 4 5 5 5 5 5 5 5 5 5 5 5 4 4 4 4 4 4 4 4 4 3 3 3 4 4 4 5 5 5 5 5 5 5 5 6 6 6 7 7 8 8 9 9 10 10 11 11 11 12 12 13 13 14 14 15 15 16 16 16 17 17 18 18
20 19 18 17 17 16 16 16 16 16 15 15 15 15 15 14 13 12 12 11 10 10 9 8 8 7 7 7 7 6 6 6 5 5 5 4 4 4 4 5 5 5 5 5 4 4 4 4 5 5 5 4 4 4 4 4 4 4 4 3 3 3 3 4 4 4 5 5 5 5 5 5 5 5 6 6 7 7 8 8 9 9 10 10 11 11 12 12 12 13 13 14 14 15 15 16 16 17 17 18 18 19 19
20 19 18 18 17 17 16 16 16 16 16 16 16 15 15 14 13 12 11 11 10 10 9 8 8 8 7 7 7 6 6 6 6 5 5 4 4 4 5 5 5 5 5 5 4 4 3 3 4 5 5 4 4 4 4 4 4 4 3 3 3 3 3 4 4 4 4 4 4 5 5 5 5 6 6 7 7 8 8 9 9 9 10 10 11 11 12 13 13 13 14 15 15 16 16 16 17 17 18 18 19 20 20
20 19 19 18 17 17 17 16 16 16 16 16 16 15 14 13 12 12 11 11 10 9 9 8 8 8 8 7 7 7 7 6 6 6 5 5 4 5 5 5 6 6 5 5 4 3 2 2 3 4 4 4 4 4 5 4 4 3 3 2 2 3 3 4 4 4 4 4 4 5 5 5 5 6 6 7 7 8 8 9 9 10 10 11 11 12 13 13 14 14 15 15 16 16 17 17 18 18 19 19 20 20 21
20 19 19 18 18 17 17 17 17 17 16 16 16 15 14 13 12 12 11 11 10 9 9 9 8 8 8 7 7 7 7 7 6 6 5 5 5 5 5 6 6 6 5 5 4 3 2 2 2 2 3 3 4 4 4 4 3 3 2 2 2 2 3 3 4 4 4 4 5 5 5 5 6 6 7 7 8 8 9 9 10 10 11 11 12 12 13 14 14 15 15 16 16 17 18 18 19 19 20 20 21 21 22
20 20 19 18 18 18 17 17 17 17 17 16 15 14 13 12 12 11 11 10 10 9 9 9 9 8 8 8 7 7 7 7 6 6 5 5 5 6 6 6 6 6 5 4 3 2 2 1 1 1 2 2 3 4 4 3 3 2 2 2 2 2 3 3 4 4 4 5 5 5 6 6 6 6 7 7 8 9 9 9 10 11 11 12 12 13 13 14 15 16 16 17 17 18 18 19 19 20 20 21 21 22 22
20 20 19 19 18 18 18 17 17 17 16 15 14 13 13 12 12 11 11 10 10 9 9 9 9 8 8 8 7 7 7 7 6 6 6 6 6 6 6 6 6 6 5 4 3 2 2 1 1 1 1 2 3 3 3 3 2 1 1 1 2 2 3 3 4 4 4 5 5 6 6 6 7 7 7 8 8 9 10 10 10 11 12 12 13 14 14 15 15 16 17 17 18 18 19 19 20 20 21 21 22 22 23
20 19 19 19 18 18 18 17 17 16 15 15 14 13 13 12 12 11 11 10 9 9 9 9 9 8 8 8 8 7 7 7 7 6 6 7 7 7 7 7 6 6 5 4 3 2 2 1 1 1 0 1 2 2 2 2 1 1 1 1 2 2 3 3 4 4 4 4 5 6 7 7 7 7 8 8 8 9 10 11 11 12 12 13 13 14 15 15 16 17 17 18 18 19 19 20 20 21 21 22 22 23 23
20 19 19 18 18 18 17 17 16 16 15 14 14 13 13 12 12 11 10 10 9 9 9 9 9 8 8 8 8 8 8 7 7 7 7 7 7 7 7 7 7 6 5 4 4 3 2 2 1 1 0 1 1 1 1 1 1 1 1 2 2 3 3 3 4 4 5 5 5 6 7 8 8 8 9 9 9 9 10 11 12 12 13 13 14 14 15 15 16 17 17 18 19 19 20 20 21 21 22 22 23 23 24
20 19 19 18 18 18 17 16 16 15 15 14 14 13 13 13 12 11 10 10 9 9 9 9 9 8 8 8 8 8 8 8 7 7 7 8 8 8 7 7 7 6 5 5 4 3 2 2 1 1 0 0 1 1 1 1 1 1 1 2 2 3 3 4 4 5 5 5 6 6 7 8 8 9 9 10 10 10 11 11 12 13 13 14 14 15 15 16 17 17 18 18 19 19 20 21 21 22 22 23 23 24 25
20 20 19 19 18 18 17 16 16 15 15 14 14 14 13 12 12 11 10 9 9 9 9 9 9 8 8 8 8 8 8 8 8 8 8 8 8 8 7 7 6 6 5 5 4 3 3 2 2 1 0 0 1 1 1 1 1 1 2 2 3 3 4 4 4 5 5 6 6 6 7 8 8 9 10 10 11 11 11 12 13 13 14 15 15 16 16 16 17 17 18 18 19 20 20 21 22 22 23 23 24 25 26
20 20 19 19 18 18 17 17 16 16 15 15 14 14 13 12 12 11 10 9 9 9 9 9 9 9 8 8 8 8 8 8 8 8 8 8 8 8 7 7 6 5 5 4 4 3 3 2 2 1 0 1 1 1 2 2 2 2 2 3 3 4 4 4 5 5 6 6 7 7 7 8 9 9 10 11 11 12 12 13 13 14 14 15 16 16 17 17 17 18 18 19 20 20 21 22 22 23 24 24 25 26 26
20 20 19 19 18 18 17 17 16 16 16 15 15 14 13 12 11 10 10 10 10 10 9 9 9 9 8 8 8 8 8 8 8 8 8 8 8 8 7 6 6 5 4 4 4 3 3 2 2 1 1 1 1 2 2 2 2 2 2 3 3 4 4 5 5 6 6 7 7 8 8 9 9 10 10 11 12 12 13 13 14 14 15 15 16 16 17 17 18 18 19 20 20 21 22 23 23 24 25 25 26 27 27
20 20 19 19 18 18 18 17 17 16 16 15 15 14 13 12 11 10 10 10 10 10 10 9 9 9 9 8 8 8 9 9 8 8 8 8 8 8 7 6 5 5 4 4 4 3 3 2 1 1 1 1 2 2 2 2 2 3 3 3 4 4 5 5 6 6 7 7 8 8 9 9 10 10 11 12 12 13 13 14 14 15 16 16 16 17 17 18 18 19 20 20 21 22 23 24 24 25 26 27 27 28 28
20 19 19 18 18 18 18 17 17 17 16 16 15 14 13 12 11 10 10 10 10 10 10 10 9 9 9 8 8 9 9 9 8 8 8 8 8 7 6 6 5 5 5 4 4 3 2 2 1 1 1 2 2 3 3 3 3 3 3 3 4 5 5 6 6 7 7 8 8 9 9 10 10 11 11 12 13 13 14 15 15 16 16 17 17 17 18 18 19 20 20 21 22 23 24 25 26 26 27 27 28 28 29
20 19 18 18 18 18 18 18 17 17 16 16 15 14 13 12 11 11 10 10 10 10 10 10 9 9 9 8 8 9 9 9 8 8 8 7 7 6 6 6 6 5 5 4 4 3 2 2 1 1 1 2 3 3 3 3 3 3 3 4 4 5 6 6 7 7 8 8 8 9 9 10 11 11 12 12 13 14 15 15 16 16 17 17 17 18 18 19 20 21 21 22 23 24 25 26 26 27 27 28 28 28 29
20 19 18 18 18 18 18 18 17 17 16 15 14 13 12 12 11 11 11 11 11 10 10 10 9 9 9 8 8 9 9 8 8 7 7 7 6 6 6 6 6 6 5 4 3 2 2 1 1 1 2 2 3 3 3 4 4 4 4 4 5 5 6 7 7 8 8 8 9 9 10 10 11 11 12 13 14 14 15 16 16 17 17 18 18 19 19 20 21 22 22 23 24 25 25 26 27 27 27 27 28 28 28
20 19 18 18 18 18 18 18 17 17 16 15 14 13 12 12 12 12 12 11 11 11 10 10 9 9 8 8 8 8 8 8 7 7 7 6 6 6 6 6 6 6 5 4 3 2 1 1 1 1 2 3 3 4 4 4 4 4 4 5 5 6 6 7 7 8 8 9 9 10 10 11 11 12 12 13 14 15 15 16 17 18 18 19 19 19 20 21 21 22 23 24 25 25 26 26 26 27 27 27 27 28 28
20 19 19 18 19 19 18 18 17 16 15 15 14 13 13 13 13 13 12 12 12 11 11 10 9 9 8 8 8 8 8 8 7 7 7 6 6 6 6 6 6 6 5 3 3 2 1 1 1 2 3 3 4 4 4 4 4 5 5 5 6 6 7 7 8 8 8 9 9 10 10 11 11 12 13 13 14 15 16 17 17 18 19 19 20 20 21 22 22 23 24 25 25 25 26 26 26 27 27 27 28 28 29
20 19 19 19 19 19 18 18 17 16 15 15 14 13 13 13 13 13 13 12 12 11 11 10 9 9 9 9 9 8 8 8 8 7 7 7 7 7 7 7 6 5 4 3 2 2 1 2 2 3 3 4 4 4 4 5 5 5 5 5 6 6 7 8 8 8 9 9 9 10 10 11 12 12 13 14 14 15 16 17 18 19 19 20 21 22 22 23 23 24 24 25 25 25 26 26 26 27 27 27 28 29 29
20 20 19 19 19 19 18 18 17 17 16 15 14 14 14 14 14 13 13 12 12 11 10 10 9 9 9 9 9 9 9 9 8 8 7 7 7 7 7 7 6 5 4 3 3 2 2 2 3 4 4 4 5 5 5 5 5 5 5 6 6 7 7 8 8 9 9 9 10 10 11 11 12 12 13 14 15 16 16 17 18 19 20 21 22 23 23 24 24 24 24 25 25 25 25 26 26 27 28 28 29 29 30
21 20 20 20 19 19 19 18 18 17 16 15 14 14 14 14 14 13 13 12 12 11 10 10 10 10 10 10 10 10 10 9 9 8 8 8 8 7 7 7 6 5 4 3 3 2 3 4 4 5 5 5 5 5 5 5 5 5 6 6 7 7 8 8 8 9 9 9 10 10 11 11 12 13 13 14 15 16 17 18 19 20 21 22 23 23 24 24 24 24 24 24 25 25 26 26 27 28 28 29 30 30 31
21 21 20 20 19 19 19 18 18 17 16 15 15 15 15 14 14 13 13 12 11 11 10 10 10 10 10 11 11 10 10 9 9 9 8 8 8 8 7 7 6 5 4 3 3 3 4 5 5 5 5 5 5 5 5 5 6 6 6 6 7 7 8 8 8 9 9 9 10 10 11 12 12 13 14 14 15 16 17 18 19 20 21 22 23 23 23 24 24 24 24 24 25 25 26 27 28 29 30 30 31 31 32
21 21 21 20 20 19 19 18 18 17 16 16 15 15 15 14 14 13 12 12 11 11 10 10 10 11 11 11 11 11 10 10 9 9 9 8 8 8 7 7 6 5 4 4 4 4 5 5 6 5 5 5 5 5 5 6 6 6 6 7 7 8 8 8 9 9 9 10 10 11 11 12 13 13 14 15 16 17 17 19 20 21 22 22 23 23 23 23 23 24 24 25 25 26 27 28 29 30 31 31 32 32 33
21 21 21 20 20 20 19 19 18 17 16 15 15 15 15 14 14 13 12 12 11 11 10 10 11 11 11 11 11 10 10 10 9 9 9 8 8 8 7 7 6 5 5 4 5 5 6 6 5 5 5 5 5 5 6 6 6 6 7 7 7 8 8 8 9 9 9 10 10 11 11 12 13 14 14 15 16 17 18 19 20 21 22 22 23 23 23 23 23 24 25 25 26 27 28 29 30 31 32 32 33 33 34
21 21 21 20 20 20 19 19 18 16 16 15 15 15 15 14 14 13 13 12 11 11 11 11 11 11 11 11 10 10 10 10 10 9 9 9 8 8 7 6 6 6 6 6 6 6 6 6 5 5 5 5 6 6 6 6 6 7 7 7 7 8 8 8 9 9 9 10 10 11 12 12 13 14 14 15 16 17 18 19 20 21 21 22 22 22 23 23 24 25 25 26 27 28 29 30 31 32 32 33 34 34 35
21 21 21 21 21 20 19 18 17 16 16 15 15 15 15 14 14 13 13 12 12 12 12 11 11 11 11 10 10 10 10 10 10 10 9 9 8 7 7 7 7 7 7 7 7 7 6 5 5 5 6 6 6 6 6 7 7 7 7 7 7 8 8 8 9 9 9 10 10 11 12 12 13 14 15 15 16 17 18 19 20 20 21 21 21 22 23 23 24 25 26 27 28 28 29 30 31 32 33 34 35 35 36
21 21 21 21 21 20 19 18 17 16 16 16 16 15 15 15 14 14 13 13 12 12 12 12 12 11 11 10 10 10 11 10 10 10 9 9 8 8 8 7 8 7 7 7 7 6 6 5 5 6 6 6 7 7 7 7 7 7 7 7 7 8 8 8 9 9 9 10 11 11 12 13 13 14 15 16 16 17 17 18 19 19 19 20 21 22 23 24 25 25 26 27 28 29 30 31 32 33 34 34 35 36 37
22 22 22 21 21 20 19 18 18 17 17 16 16 16 15 15 15 14 14 13 13 13 13 13 12 12 11 11 11 11 11 11 10 10 9 9 8 8 8 8 8 8 8 7 7 6 6 5 6 6 6 7 7 7 7 7 7 7 7 7 7 8 8 8 8 9 10 10 11 12 12 13 14 14 15 16 16 17 17 17 18 18 19 20 21 22 23 24 25 26 27 28 28 29 30 31 32 33 34 35 36 37 37
23 23 22 22 21 20 19 19 18 18 17 17 16 16 16 15 15 15 14 14 14 13 13 13 12 12 12 11 11 11 11 11 10 10 10 9 9 9 9 9 8 8 8 7 7 6 6 6 6 6 7 7 7 7 7 7 7 7 7 7 7 8 8 8 9 9 10 10 11 12 13 13 14 15 15 15 16 16 16 17 17 18 19 20 21 22 23 24 25 26 27 28 29 29 30 31 32 33 34 35 36 37 38
24 23 23 22 21 20 19 19 18 18 17 17 17 16 16 16 15 15 15 14 14 14 13 13 13 12 12 12 12 12 11 11 11 10 10 10 10 9 9 8 8 8 7 7 7 6 6 6 6 7 7 7 7 7 7 7 7 7 7 7 7 8 8 8 9 9 10 11 11 12 13 13 14 14 15 15 15 16 16 17 18 18 19 20 22 22 23 24 25 26 27 28 29 30 31 32 33 34 35 36 37 38 39
24 24 23 22 21 20 20 19 19 18 18 17 17 17 16 16 15 15 15 14 14 14 14 13 13 12 12 12 12 12 11 11 11 11 10 10 10 9 9 8 8 8 7 7 7 7 7 7 7 7 7 7 7 7 7 7 7 7 7 7 7 8 8 8 9 9 10 11 12 12 13 13 14 14 15 15 16 16 17 18 18 19 20 21 22 23 24 24 25 26 27 28 29 30 31 32 33 34 35 37 38 39 40
25 24 23 22 21 20 20 19 19 18 18 17 17 17 16 16 15 15 14 14 14 14 13 13 12 12 12 12 12 11 11 11 11 11 10 10 9 8 8 7 7 7 7 7 7 7 7 7 7 7 7 7 7 7 7 7 7 7 7 7 7 7 8 8 9 9 10 11 12 12 13 13 14 14 15 16 16 17 18 19 19 20 21 22 22 23 24 25 26 26 27 28 29 30 31 32 34 35 36 37 38 40 41
25 24 22 22 21 20 20 19 19 18 18 17 17 17 16 16 15 15 14 14 14 13 13 13 12 12 12 12 11 11 11 11 11 11 10 9 8 7 7 7 7 8 8 7 7 7 7 7 7 7 7 7 7 7 7 7 7 7 7 7 7 7 8 8 9 9 10 11 12 12 13 14 14 15 16 16 17 18 19 19 20 21 22 22 23 24 24 25 26 27 28 29 30 31 32 33 34 35 36 38 39 40 41
25 24 23 22 21 20 20 19 19 18 18 18 18 17 17 16 16 15 15 14 14 13 13 13 12 12 12 11 11 11 11 11 11 10 9 7 7 7 7 8 8 8 8 7 7 7 7 7 7 7 7 7 7 7 7 7 7 7 7 7 7 7 8 8 9 10 11 11 12 13 14 14 15 16 16 17 18 18 19 20 21 21 22 23 23 24 25 26 26 27 28 29 30 31 32 34 35 36 37 38 40 41 42
25 24 23 22 21 20 20 19 19 19 19 19 18 18 17 17 16 16 15 14 14 13 13 13 13 12 12 11 11 11 11 11 10 9 8 7 7 7 8 8 8 8 7 7 7 7 7 7 7 7 7 7 7 7 7 7 6 6 6 7 7 7 8 9 9 10 11 12 13 14 14 15 16 16 17 17 18 19 19 20 21 21 22 23 24 24 25 26 27 28 29 30 31 32 33 34 35 37 38 39 40 41 43
24 23 22 21 20 20 19 19 19 19 19 19 18 18 17 17 16 16 15 14 14 13 13 12 12 12 12 12 12 12 11 11 10 8 7 7 7 8 8 8 8 8 7 7 7 7 7 7 7 7 7 7 7 7 6 6 6 6 6 7 7 8 8 9 10 11 12 13 14 15 15 15 16 16 17 17 18 18 19 20 21 21 22 23 24 25 25 26 27 28 29 30 31 32 34 35 36 37 39 40 41 42 43
24 22 21 20 20 20 20 19 19 19 19 18 18 17 17 16 16 15 15 14 14 13 12 12 12 12 12 12 12 12 11 11 9 8 7 7 8 8 9 8 8 8 7 7 7 7 7 7 7 7 7 6 6 6 6 6 5 6 6 6 7 8 9 9 10 12 13 14 14 15 15 15 16 16 17 17 18 18 19 20 21 21 22 23 24 25 26 27 28 29 30 31 32 33 34 36 37 38 39 41 42 43 44
23 22 21 20 20 20 20 20 19 19 18 17 17 16 16 16 15 15 15 14 14 13 12 12 12 11 11 12 12 11 11 10 9 8 8 8 9 9 9 9 8 7 7 6 6 7 7 6 6 7 6 6 6 6 6 5 5 5 6 6 7 8 9 10 11 12 13 14 14 15 15 15 15 16 16 17 18 18 19 20 21 22 23 23 24 25 26 27 28 29 31 32 33 34 35 37 38 39 40 41 43 44 45
22 21 20 20 20 20 20 20 19 19 18 17 16 16 15 15 15 15 14 14 13 13 12 12 12 11 11 11 11 11 10 9 9 8 8 9 9 9 9 8 7 7 7 7 6 6 6 6 6 6 6 6 6 6 6 5 5 5 6 6 7 8 9 10 11 12 13 13 14 14 14 14 15 15 16 17 18 19 19 20 21 22 23 24 25 26 27 28 29 30 31 33 34 35 36 38 39 40 41 42 43 44 45
22 21 21 20 20 20 20 19 19 18 18 17 17 16 15 15 15 14 14 13 13 12 12 12 12 12 11 11 10 10 10 9 9 9 9 9 9 9 8 7 7 7 7 7 7 6 6 5 5 5 6 6 6 5 5 5 5 5 6 6 7 8 9 10 10 11 12 13 13 14 14 14 15 15 16 17 18 19 20 21 21 22 23 24 25 26 27 28 30 31 32 34 35 36 37 39 40 41 42 43 44 45 46
22 21 21 21 21 20 20 20 19 19 18 18 17 17 16 15 15 14 14 13 13 12 12 12 12 11 11 10 10 10 9 9 9 9 9 9 9 8 8 7 8 8 7 7 7 6 6 5 5 5 6 5 5 5 5 5 5 5 6 6 7 8 8 9 10 11 12 13 13 13 14 14 15 15 16 17 18 19 20 21 22 23 24 25 26 27 28 29 30 32 33 34 36 37 38 39 41 42 43 44 45 46 47
22 22 22 21 21 21 20 20 19 19 18 18 18 17 17 16 15 15 14 14 13 13 13 12 11 11 11 10 10 9 9 9 9 9 9 9 8 8 8 7 7 7 7 6 6 6 5 5 5 5 5 5 5 4 4 4 4 5 5 6 7 8 8 9 10 11 12 12 13 13 14 15 15 16 16 17 18 19 20 21 22 23 24 25 26 27 29 30 31 32 34 35 36 38 39 40 41 42 43 44 45 46 47
23 22 22 22 22 21 20 20 19 19 18 18 18 17 17 16 16 15 15 14 14 13 13 12 11 11 10 10 9 9 10 10 10 10 9 9 8 8 7 7 7 7 7 7 6 5 5 4 5 5 5 5 5 5 4 4 4 4 5 6 7 8 8 9 10 11 12 12 13 14 14 15 16 16 17 18 19 20 21 22 23 24 25 26 27 28 29 31 32 33 34 36 37 38 39 41 42 43 44 45 46 47 48
23 23 22 22 22 21 21 20 19 19 18 18 17 17 17 16 16 15 15 14 14 13 13 12 11 11 10 9 9 10 10 11 10 10 9 9 8 8 7 7 7 7 7 7 6 5 5 5 5 5 5 5 4 4 4 4 3 4 5 6 7 8 8 9 10 11 12 13 13 14 15 15 16 17 17 18 19 20 21 22 23 24 25 26 28 29 30 32 33 34 35 37 38 39 40 41 42 43 44 45 46 47 48
23 23 23 23 22 22 21 21 20 19 18 18 17 17 17 16 16 15 15 14 14 13 13 12 12 11 10 10 10 11 11 11 10 10 9 9 8 8 8 7 7 6 6 5 5 4 4 4 5 5 5 5 4 3 3 4 4 4 5 6 7 8 9 9 10 11 12 13 14 14 15 16 16 17 18 19 19 20 21 22 23 25 26 27 28 30 31 32 34 35 36 37 38 39 40 42 43 44 45 46 47 48 49
24 24 23 23 23 22 22 21 20 20 19 18 18 17 17 16 16 15 15 14 14 13 13 12 12 11 11 11 11 11 12 11 11 10 10 9 9 8 8 7 6 6 5 4 4 3 3 4 5 5 5 5 4 4 3 4 4 5 6 7 7 8 9 9 10 11 12 13 14 14 15 16 16 17 18 19 20 21 22 23 24 25 27 28 29 30 32 33 34 36 37 38 39 40 41 42 43 44 45 46 47 48 49
Wind_Direction
225 227 228 230 230 230 230 231 233 235 237 239 241 242 243 243 242 240 237 235 233 233 233 234 235 235 233 231 230 232 236 243 250 257 261 262 264 266 272 280 290 299 303 303 293 273 248 112 98 96 96 91 94 95 97 90 81 77 72 65 59 55 49 44 39 33 31 31 30 30 30 31 32 32 31 29 27 25 24 23 21 19 16 15 14 13 12 10 9 8 8 7 4 360 357 355 353 350 347 344 341 339 337
227 228 230 232 232 231 230 231 232 234 236 239 240 240 241 240 239 236 232 229 228 229 231 232 233 232 230 229 229 233 239 246 252 256 258 259 262 266 273 281 290 298 306 303 275 250 188 117 106 105 101 100 102 106 109 97 84 73 66 59 55 50 45 43 38 36 35 35 34 33 33 34 34 33 32 29 27 25 24 23 21 19 16 15 14 12 11 9 8 6 5 3 360 357 354 351 349 346 343 340 338 336 334
227 229 231 233 233 232 230 230 231 232 234 235 236 236 236 235 233 230 226 224 225 227 229 230 230 228 227 227 230 235 241 248 252 254 255 257 260 266 273 279 287 301 337 269 217 212 167 124 114 109 106 105 107 110 106 94 82 68 60 55 51 47 43 40 38 36 36 38 37 36 35 36 36 34 32 30 27 25 23 21 20 18 15 14 13 11 10 8 6 4 2 359 356 353 350 347 344 342 339 337 335 333 332
226 228 230 232 233 231 229 228 227 228 229 230 231 231 230 229 227 224 221 222 225 229 229 229 228 227 226 227 231 237 243 248 251 252 253 257 261 266 271 277 287 313 122 181 204 198 163 129 117 112 109 107 105 99 88 79 72 62 55 52 49 46 43 40 37 37 37 37 37 37 37 36 36 34 31 29 26 24 21 19 17 16 14 12 11 9 7 5 3 0 358 355 352 349 346 343 341 338 336 334 333 331 329
225 227 229 231 231 229 226 224 223 223 224 225 225 226 226 225 222 219 216 219 225 230 230 228 227 225 225 228 233 238 243 247 248 250 253 257 262 267 271 274 270 129 147 191 204 193 157 127 116 112 110 108 101 85 66 63 62 58 54 51 49 46 43 39 37 36 36 36 36 36 37 37 36 34 31 29 25 22 19 17 14 12 10 9 7 6 4 2 360 357 354 350 347 345 342 340 337 336 334 332 330 329 327
224 225 227 228 228 226 222 220 219 219 220 221 222 224 226 225 220 214 210 213 223 228 228 227 225 225 225 228 234 238 243 245 246 249 253 259 263 266 266 259 188 151 171 196 200 186 145 121 113 111 110 108 102 90 71 62 63 62 57 54 51 47 44 41 38 36 35 35 35 36 36 37 35 33 30 28 24 21 17 13 10 8 7 4 3 1 360 358 355 353 350 346 344 341 340 337 335 334 332 330 329 328 327
222 223 225 225 225 223 220 218 217 218 218 219 222 225 228 228 223 214 208 211 219 224 224 223 223 223 224 229 234 238 241 242 243 248 253 258 262 262 256 227 177 172 186 197 196 175 137 119 114 113 112 110 109 107 104 88 75 69 64 58 53 49 45 41 38 36 33 32 33 35 35 35 33 31 29 26 22 19 14 10 6 4 2 360 358 357 355 353 351 348 346 343 341 339 337 335 334 332 331 329 328 327 326
220 221 222 223 221 219 217 216 217 218 219 220 223 227 230 230 227 219 213 213 217 221 221 220 220 221 224 229 234 238 238 239 242 246 252 256 258 253 237 202 180 183 191 197 190 162 133 122 119 117 115 114 115 114 109 94 79 71 65 60 54 49 45 41 38 34 32 32 33 34 34 34 32 29 26 23 19 15 11 6 2 360 357 355 354 352 351 349 347 345 343 341 339 337 335 334 332 331 330 328 328 327 327
218 219 221 221 219 216 215 216 218 219 220 222 226 230 232 232 229 224 220 217 218 220 219 218 218 220 225 230 235 237 237 237 241 246 251 253 251 241 216 194 185 190 194 193 180 155 136 128 125 122 118 116 114 108 97 86 77 70 64 60 54 49 44 40 36 32 31 32 33 33 33 31 29 27 24 20 16 12 6 2 358 355 353 351 350 349 347 346 344 343 340 339 337 336 334 333 332 331 329 329 328 328 327
216 217 219 220 218 216 215 217 218 220 221 224 227 231 233 233 231 228 224 221 220 220 218 218 219 222 228 232 235 236 236 237 241 245 250 250 245 229 202 188 190 194 195 188 173 154 142 135 129 123 117 114 107 98 89 81 75 69 64 58 53 48 42 38 32 30 29 31 33 33 31 28 26 24 21 17 13 8 2 358 354 351 349 348 346 346 344 344 343 341 340 338 336 335 334 333 332 331 330 329 329 328 328
214 216 217 218 217 216 217 218 220 221 223 225 228 231 233 233 232 230 227 224 222 220 220 220 222 226 231 234 236 236 236 238 242 246 248 245 236 216 193 187 191 196 195 185 169 156 146 139 130 122 115 108 99 89 83 78 73 67 61 55 50 46 40 35 30 28 28 31 31 30 28 25 22 19 16 12 7 2 357 353 350 348 347 346 345 344 343 342 342 341 339 337 336 335 334 333 332 331 330 330 330 329 328
213 214 215 215 215 216 218 219 221 222 224 225 227 229 231 233 233 232 230 228 225 223 222 223 226 230 233 235 236 236 237 239 243 245 245 240 228 208 190 188 192 195 193 183 169 156 148 139 130 120 111 102 91 84 78 74 68 62 56 51 46 41 36 29 25 25 26 28 28 26 24 20 17 14 10 5 0 356 351 349 347 345 345 344 344 342 342 341 341 340 338 337 336 335 334 333 332 331 330 330 329 328 327
212 213 214 212 213 215 219 220 221 222 224 224 225 226 229 231 232 233 232 230 227 225 225 226 228 232 234 235 235 236 237 240 242 243 240 234 222 203 188 188 191 194 192 181 169 158 150 141 129 118 107 96 86 78 74 69 64 59 54 47 42 36 28 22 21 21 23 24 23 21 18 14 10 7 3 359 355 351 348 346 345 344 344 343 343 342 341 341 340 339 338 336 335 334 333 331 331 330 329 328 328 327 326
211 213 213 211 212 215 218 220 221 222 223 223 223 224 225 228 230 231 230 228 226 226 225 227 230 232 234 234 234 236 237 239 239 239 235 229 216 200 189 188 192 192 189 181 170 162 153 142 129 117 106 96 85 77 73 68 63 57 52 45 37 29 20 17 17 18 20 19 18 15 11 7 3 359 357 353 351 347 345 344 344 343 343 343 342 341 341 340 339 338 336 335 333 332 331 330 329 328 328 326 326 325 324
211 212 212 211 213 215 218 219 221 222 222 222 222 222 223 224 225 226 226 225 224 224 225 227 230 232 233 232 233 234 236 236 236 234 230 224 212 198 190 190 191 191 188 181 173 165 157 142 128 116 108 99 91 84 78 72 65 58 51 42 32 22 13 11 14 15 14 13 11 7 4 360 356 353 351 349 347 345 343 343 342 342 342 342 341 340 339 338 337 335 334 332 331 330 328 327 327 327 326 324 324 323 323
211 211 211 211 213 215 217 218 220 221 221 221 221 221 222 222 222 222 222 221 222 223 224 227 229 230 230 230 231 232 234 233 232 229 225 219 208 197 190 190 189 188 186 180 175 170 160 141 127 117 111 106 101 95 86 77 68 59 50 39 27 18 10 7 9 11 9 6 2 359 355 352 350 348 347 346 345 342 342 341 341 341 341 339 339 338 337 335 334 333 331 330 328 327 326 326 325 325 324 323 322 322 322
211 211 211 210 212 215 216 217 219 220 221 221 222 221 221 221 221 220 219 219 220 222 224 226 226 227 226 227 228 230 231 230 228 224 221 214 206 197 192 190 188 186 183 180 177 173 162 142 125 117 114 112 107 99 90 80 71 61 50 37 26 17 8 4 3 3 2 359 354 349 346 344 344 344 343 343 342 340 340 339 339 338 338 337 336 335 334 332 331 330 328 327 327 326 325 324 324 323 323 322 321 321 321
210 211 211 210 211 213 215 216 217 219 220 222 222 222 222 221 220 219 218 218 219 221 223 224 224 223 223 224 226 227 227 226 224 220 216 209 202 197 193 190 188 185 182 178 176 172 163 140 123 115 114 113 109 101 91 83 75 67 52 35 23 15 7 2 359 356 354 351 345 341 338 339 340 340 341 340 338 338 336 336 336 335 334 333 333 333 332 330 328 327 326 326 325 325 324 323 323 322 322 321 321 320 320
210 211 211 211 211 212 214 215 216 218 220 222 223 223 222 221 220 219 218 218 219 221 222 221 221 220 220 222 224 225 225 223 220 215 209 203 198 195 194 191 188 184 181 177 174 171 162 139 118 112 113 110 104 96 90 84 81 73 59 36 21 11 4 360 355 350 347 343 338 334 333 335 336 336 336 336 335 334 333 333 332 331 330 330 331 330 330 328 327 326 325 325 325 324 323 323 323 322 322 321 321 320 320
210 210 211 211 211 211 213 214 216 218 220 222 223 223 222 221 220 219 218 218 220 220 221 220 218 217 218 220 222 223 223 220 216 211 204 198 193 192 193 193 189 184 180 174 171 168 159 135 116 109 111 105 97 90 86 83 80 76 63 41 20 6 360 355 350 345 342 340 334 329 329 330 332 333 333 334 332 331 329 329 329 329 329 328 329 328 327 326 325 325 325 325 325 324 324 323 323 322 322 321 321 320 320
210 211 211 212 212 212 212 214 215 218 220 222 223 223 222 221 219 219 218 219 220 220 220 218 217 216 217 219 221 221 221 219 214 206 198 193 189 190 193 193 191 185 178 173 169 165 158 141 125 124 114 97 89 86 83 84 78 70 54 34 14 4 358 352 345 339 337 339 333 328 327 327 329 329 330 330 330 328 326 326 327 327 327 327 326 326 326 325 325 325 325 325 325 324 324 323 322 322 322 321 321 320 320
210 211 212 212 213 212 213 214 215 217 220 221 222 222 221 220 219 218 218 219 220 220 219 217 216 216 217 218 220 220 220 217 212 203 195 189 186 187 191 193 192 186 178 171 168 164 159 159 176 186 136 90 83 81 80 80 71 55 33 16 4 357 352 348 340 334 331 336 333 328 326 326 326 326 326 325 326 325 324 324 325 325 325 324 324 324 324 325 325 325 325 325 325 324 323 322 322 321 321 321 320 320 320
210 211 212 213 213 213 213 213 214 216 218 220 221 222 221 220 219 218 218 219 220 219 218 217 216 216 217 218 218 219 219 216 210 201 192 186 184 185 190 193 192 187 178 171 166 165 167 178 196 213 203 81 72 72 70 63 38 16 2 358 353 348 345 342 338 331 327 330 330 328 326 324 323 323 322 322 322 322 322 323 323 323 323 322 323 323 324 325 325 326 325 325 324 323 322 321 321 321 320 320 320 320 320
210 211 212 212 213 213 212 212 213 214 216 219 220 221 221 220 219 218 218 219 219 219 218 217 217 216 216 216 217 217 218 215 209 199 190 185 183 184 189 193 193 189 180 170 166 166 172 183 199 211 225 30 42 39 26 354 336 337 341 344 341 339 338 334 331 327 326 326 326 324 322 320 320 320 320 320 321 321 321 322 322 322 322 322 323 323 324 326 326 326 325 324 323 322 321 321 320 320 320 320 320 320 319
209 211 212 212 212 211 211 211 211 212 214 216 219 220 221 220 219 218 218 219 218 218 218 217 217 216 216 215 216 216 217 214 207 198 190 184 181 183 188 193 195 190 181 172 167 168 173 181 192 208 244 314 333 324 315 309 315 322 330 333 333 332 330 328 325 323 322 321 319 316 315 315 316 317 317 319 320 320 320 320 320 321 321 322 323 324 326 326 326 325 324 323 322 321 321 320 320 320 320 320 320 319 319
209 210 211 211 210 210 209 209 209 210 212 214 217 219 220 221 220 219 219 218 217 217 217 217 217 216 215 214 214 216 216 213 206 197 189 184 181 182 188 194 196 193 184 175 170 170 173 179 184 200 246 291 300 299 297 301 305 315 323 327 327 325 325 323 320 318 316 314 313 311 311 313 314 316 316 317 318 318 319 319 320 321 321 322 324 325 326 326 326 324 323 322 321 321 320 320 320 320 320 319 319 319 318
209 210 210 209 208 208 207 207 207 208 210 212 215 217 219 220 220 220 218 217 216 216 216 217 217 216 214 214 213 214 215 212 205 196 189 185 182 182 187 195 198 195 189 181 176 173 173 174 178 194 246 281 288 287 290 295 302 311 318 320 322 320 319 318 316 314 313 312 312 312 313 313 314 315 316 317 317 318 319 320 320 321 322 322 324 326 326 326 325 324 323 322 321 321 320 320 320 320 320 320 319 319 318
208 209 209 208 207 206 205 205 206 207 208 210 213 216 218 220 220 220 218 216 216 215 216 217 217 215 214 212 212 213 214 211 205 196 190 185 182 182 186 193 199 198 193 188 182 177 173 169 172 194 252 272 279 283 285 291 298 305 311 314 314 313 312 312 311 311 312 312 313 314 314 315 315 316 316 317 318 318 319 320 321 321 322 323 325 325 326 325 324 324 323 322 322 321 321 321 321 320 320 320 320 319 319
208 208 208 207 206 204 204 204 205 206 207 209 211 213 216 218 219 219 218 216 215 215 216 216 216 214 212 211 210 211 212 210 204 196 191 187 183 183 187 194 199 201 199 194 188 180 171 166 169 198 250 268 273 279 281 287 294 299 305 307 308 307 308 307 308 308 310 311 312 313 314 315 315 316 316 317 318 318 319 320 321 322 322 323 324 325 325 324 324 323 323 322 322 322 321 321 321 321 320 320 320 319 319
207 207 207 206 205 204 204 204 205 205 207 208 210 212 214 216 218 217 217 215 215 215 216 216 215 213 210 209 208 209 209 208 203 197 192 187 184 185 189 196 202 203 202 198 191 180 170 164 173 213 252 264 270 275 279 284 288 293 298 300 302 303 304 305 307 307 309 310 311 312 314 314 315 315 316 317 318 319 319 321 321 322 322 324 324 324 324 324 323 323 323 323 322 322 322 321 321 321 321 321 320 320 320
206 206 206 205 204 204 204 204 205 206 207 208 209 210 212 214 215 215 215 214 215 215 216 215 214 212 209 207 206 206 207 206 202 197 193 188 187 189 195 202 206 207 204 198 189 179 167 165 187 229 254 262 267 272 277 281 285 289 294 297 299 301 303 304 306 308 309 311 312 313 313 313 314 315 316 317 318 319 320 321 322 322 323 324 324 324 324 324 324 323 323 323 323 322 322 322 321 321 321 321 321 321 321
205 205 205 204 204 204 204 204 206 207 207 208 208 209 210 211 212 212 213 213 213 214 215 214 212 210 207 205 204 205 205 203 200 197 194 191 190 194 201 207 210 209 205 197 185 174 170 180 218 245 257 262 266 271 274 280 284 288 292 296 298 300 302 303 305 306 308 310 311 311 312 313 313 314 316 317 319 321 322 323 323 323 323 323 323 323 323 323 324 324 323 323 323 323 322 322 322 322 322 321 321 321 321
204 204 204 204 204 203 204 204 205 207 209 209 209 209 209 209 209 210 210 211 213 213 213 212 209 207 204 202 202 202 202 201 200 198 196 194 194 199 205 210 212 210 204 195 181 172 178 207 235 250 256 261 265 270 274 279 282 287 292 295 297 299 300 302 303 304 306 307 308 309 310 311 313 314 316 318 320 322 323 323 323 323 322 322 322 322 323 324 324 324 324 324 324 323 323 322 322 322 322 321 321 321 320
203 203 204 203 203 203 203 204 205 207 209 209 209 208 208 208 208 208 209 210 212 212 211 209 206 203 201 199 199 199 199 200 199 199 197 196 197 200 206 209 211 210 204 193 181 179 193 221 237 246 252 257 263 268 273 278 282 287 291 294 297 298 299 299 301 302 303 305 306 307 309 311 313 316 318 320 321 323 323 323 323 323 322 322 322 323 324 325 325 325 325 325 324 324 323 323 322 322 322 321 321 321 320
203 203 204 204 203 202 202 203 205 207 209 209 209 208 207 206 206 207 208 209 211 210 208 205 203 200 198 197 197 197 197 198 198 198 197 197 198 201 204 208 211 209 203 193 185 188 207 225 236 242 248 255 261 267 273 278 283 286 290 293 294 295 296 297 298 300 302 303 305 307 310 312 315 318 320 321 323 324 324 323 323 322 322 322 323 324 325 326 326 326 325 325 324 324 324 323 322 322 321 321 321 321 321
202 203 204 204 203 203 203 204 206 207 208 208 208 207 206 206 205 206 207 208 209 207 205 202 200 198 197 196 195 195 195 195 195 196 197 198 199 201 203 206 209 208 204 197 194 201 215 227 234 241 247 253 261 268 273 277 282 285 288 290 292 293 293 295 296 298 300 302 305 308 311 314 317 319 321 323 324 324 324 324 323 322 322 322 323 325 326 327 326 326 325 325 325 324 324 323 322 322 322 322 322 322 322
201 202 203 203 203 203 204 205 207 208 207 207 207 206 205 204 204 204 205 207 206 205 203 201 199 198 196 195 194 194 193 192 192 194 196 198 200 201 201 204 208 208 207 203 204 212 221 229 236 242 249 256 263 268 273 277 280 283 285 287 289 290 291 292 294 297 299 302 306 310 313 316 318 320 322 323 324 325 325 324 323 322 322 323 324 325 326 326 326 326 326 325 325 325 324 324 323 323 323 323 324 324 324
201 201 202 202 202 203 204 207 209 209 207 206 205 204 203 202 202 203 203 204 204 202 201 201 199 198 196 194 193 192 191 190 190 192 195 198 200 201 201 202 205 207 208 209 213 220 227 232 239 245 252 259 263 268 271 275 277 280 282 284 285 287 288 291 293 297 301 305 309 312 315 317 319 321 323 324 325 325 325 324 323 322 322 323 325 326 327 327 326 326 326 326 326 326 326 325 325 325 325 325 326 326 326
201 201 201 200 201 202 205 208 210 209 207 205 203 203 201 201 201 201 201 201 200 200 200 200 200 198 196 193 192 190 189 189 190 191 194 198 200 201 202 202 203 204 206 210 216 223 229 235 242 249 254 259 262 265 269 272 274 276 278 281 283 285 287 290 294 298 303 307 311 314 316 318 320 322 324 325 325 325 324 323 323 323 323 325 326 327 327 327 327 327 327 327 327 327 327 327 327 327 327 327 327 327 327
201 200 200 199 200 202 205 208 209 209 206 204 203 201 200 199 199 199 199 198 198 198 199 200 200 198 195 193 191 189 189 189 191 193 196 198 200 202 203 202 203 204 206 210 216 223 230 237 244 250 255 258 261 264 267 269 271 273 276 279 282 285 288 292 296 301 306 310 313 315 317 319 321 323 324 325 326 325 325 324 324 324 325 326 327 328 328 328 328 329 328 328 329 329 329 329 329 328 328 328 328 328 328
201 199 198 199 200 203 205 208 208 207 204 202 201 200 199 198 197 197 196 196 195 196 197 198 198 197 194 192 190 189 191 192 193 195 197 200 201 202 203 204 205 206 208 211 216 223 230 236 243 249 254 259 262 265 266 268 270 272 276 279 281 285 289 294 298 303 307 310 313 315 317 319 321 324 325 326 326 326 325 325 325 326 327 328 328 329 329 329 330 330 330 330 330 330 330 330 330 329 329 328 328 328 328
200 199 198 199 200 202 205 206 206 204 202 200 199 199 198 197 196 195 194 193 193 194 196 196 196 194 192 191 191 192 193 195 196 197 199 200 201 202 204 206 208 209 211 214 217 223 229 235 241 248 254 260 263 265 266 268 270 272 275 278 281 285 290 295 299 304 308 310 313 316 318 321 324 326 327 327 327 326 326 326 326 327 328 328 329 329 330 330 331 331 331 331 331 331 331 330 330 329 329 328 328 327 327
199 197 197 198 200 202 203 204 203 202 199 198 197 197 197 197 195 193 192 191 192 193 195 196 195 192 191 191 193 195 197 198 199 199 200 200 201 202 205 208 210 212 214 217 220 224 228 234 239 246 253 258 262 263 265 267 268 270 272 276 281 285 290 295 300 305 308 312 315 318 321 324 326 328 329 328 327 326 326 326 327 328 328 329 329 330 330 331 331 332 332 332 331 331 330 330 329 329 328 327 327 327 326
197 196 196 198 200 201 202 202 201 199 197 196 195 196 196 196 195 193 191 190 191 192 194 195 194 192 191 192 195 199 200 200 200 201 201 200 201 202 205 209 212 215 217 219 221 223 227 231 237 243 250 254 257 260 262 263 265 267 270 274 279 285 291 296 302 307 311 315 318 321 324 327 329 329 328 327 326 326 327 327 328 328 328 329 330 331 331 332 332 332 332 331 331 331 330 329 329 328 327 327 327 326 326
195 194 195 197 199 200 201 200 199 197 195 194 194 194 195 195 194 193 191 191 191 192 194 194 193 192 192 194 198 201 203 203 203 202 201 200 200 203 206 209 213 217 220 221 222 223 225 230 234 240 244 249 252 255 258 260 262 264 268 274 279 285 292 299 305 311 316 319 322 325 327 329 329 329 327 326 326 326 327 328 329 329 330 330 331 332 332 332 332 332 332 331 331 330 330 329 328 328 327 327 327 327 327
194 194 195 197 198 199 199 199 197 195 194 193 194 194 194 194 194 193 193 192 192 192 193 193 193 193 194 196 199 202 204 205 205 204 202 201 201 203 206 211 216 219 222 222 222 223 225 229 233 237 241 245 249 252 255 257 260 263 268 274 281 288 296 303 310 316 319 322 324 326 328 328 328 327 327 327 327 328 329 330 331 331 331 332 332 333 333 333 332 332 332 331 331 330 329 329 328 328 328 328 327 327 327
193 193 195 196 198 198 198 198 196 194 193 193 193 193 193 193 193 192 193 193 193 192 191 191 192 194 196 198 200 202 205 208 208 206 204 202 202 205 208 214 219 222 223 223 223 223 225 229 233 236 240 244 247 250 253 256 260 265 271 278 285 294 301 309 315 320 322 323 325 326 328 328 328 328 328 329 330 331 332 332 333 333 333 333 334 333 333 333 333 332 332 331 330 330 329 329 329 328 328 328 328 328 328
191 192 194 196 197 197 197 196 194 192 192 192 192 192 191 191 191 191 192 193 193 192 190 190 191 194 197 199 201 203 207 210 210 208 204 203 206 210 214 219 223 224 223 223 223 224 226 230 234 238 241 244 247 250 252 256 261 267 275 283 292 301 308 314 319 321 322 324 325 327 329 330 330 331 332 332 333 334 334 335 335 335 335 335 334 334 334 333 333 332 332 331 330 330 329 329 329 329 329 329 329 329 329
190 191 193 194 195 196 195 194 192 192 192 192 191 190 190 190 190 190 191 191 191 191 190 190 190 193 196 199 202 205 209 212 212 209 205 206 211 217 223 224 224 222 222 221 222 225 228 232 236 239 243 245 247 250 253 257 263 272 280 290 299 306 313 318 321 323 324 325 327 329 331 332 333 334 334 335 335 336 336 336 336 336 335 335 335 334 334 333 333 332 331 331 330 330 330 330 330 330 330 330 330 330 329
189 191 193 193 194 193 193 192 192 192 192 192 191 190 190 189 189 190 190 190 190 190 190 191 191 192 194 198 203 207 211 213 213 210 207 209 214 221 225 225 222 219 218 220 223 226 230 234 238 241 244 246 248 251 255 260 268 277 287 295 303 310 316 321 324 325 326 328 330 332 334 335 335 335 335 335 336 336 336 336 336 336 335 335 335 334 334 333 332 332 331 331 331 331 331 331 331 331 331 331 330 330 330
189 191 192 192 192 191 191 191 192 193 194 193 192 191 190 189 189 189 190 189 189 189 189 191 193 193 194 197 203 208 212 214 213 211 207 211 216 220 222 220 218 217 218 221 225 229 233 238 241 244 246 248 251 253 258 264 274 283 292 300 307 314 320 325 327 328 329 330 332 334 336 336 336 336 335 335 335 336 336 336 336 336 335 335 334 334 333 333 332 332 332 331 331 332 332 332 332 332 332 331 331 331 330
189 190 191 190 190 190 189 190 192 194 195 194 193 191 190 189 189 189 189 189 188 188 188 191 194 197 198 199 204 209 213 214 214 210 206 211 217 220 220 219 217 218 220 224 228 232 236 240 244 246 248 250 253 256 261 269 278 287 296 304 313 320 326 330 331 331 331 332 333 335 336 335 335 335 334 334 335 336 336 336 336 336 335 335 334 334 333 333 332 332 332 332 332 333 333 333 333 332 332 332 332 331 331
188 189 189 189 189 189 189 190 192 194 194 194 192 191 190 189 189 189 189 188 188 187 187 190 195 199 203 204 207 211 214 216 214 211 207 209 214 218 219 217 214 214 219 223 230 236 240 241 245 248 249 251 256 259 264 272 281 291 302 311 319 326 331 333 333 332 331 332 333 334 334 334 333 333 333 334 335 336 336 336 336 336 335 335 334 334 333 333 333 333 333 333 334 334 334 334 333 333 333 333 332 332 332
187 188 187 187 188 189 190 191 191 192 191 190 190 189 189 189 189 189 189 188 187 187 188 190 194 199 205 209 212 214 217 217 216 212 208 208 210 212 213 213 213 215 220 223 227 233 240 243 244 247 253 255 259 263 268 275 285 297 308 318 325 330 333 334 333 331 330 330 330 331 331 331 332 332 333 334 335 336 337 337 336 336 335 334 334 334 333 333 334 334 334 335 335 335 334 334 334 334 334 333 333 333 333
187 187 187 186 187 188 189 191 191 190 189 187 186 186 187 188 188 188 188 187 186 187 190 193 196 200 204 210 215 218 219 218 215 210 206 207 207 206 203 206 210 216 221 227 227 227 235 242 246 249 255 258 262 266 271 280 292 304 315 322 327 331 332 333 331 329 327 327 327 328 328 329 331 332 334 335 336 337 337 337 336 336 335 335 334 334 334 334 335 335 336 336 336 335 335 335 335 335 334 334 334 334 334
187 187 187 186 186 187 189 189 190 189 187 186 184 183 184 186 187 187 187 186 186 187 191 195 199 203 206 210 214 218 219 217 213 207 202 201 202 202 201 202 205 212 219 223 225 227 230 237 245 249 253 259 262 266 275 285 297 308 316 322 326 328 329 330 329 327 325 325 325 325 326 328 330 333 335 337 337 337 337 337 336 336 335 335 335 335 335 335 336 336 337 336 336 336 336 335 335 335 335 335 335 335 335
188 188 187 186 186 187 188 188 188 188 187 185 184 182 183 185 186 187 186 186 186 188 191 196 201 204 208 210 213 215 215 212 208 202 197 194 193 195 198 202 206 211 214 216 219 223 227 235 235 236 242 255 257 258 271 285 295 306 313 317 322 325 327 328 327 325 323 322 323 323 325 328 332 335 337 338 338 338 337 337 336 336 335 335 335 336 336 337 337 337 337 337 337 336 336 336 336 336 336 336 336 336 336
188 188 188 187 186 186 186 187 187 187 186 185 183 182 183 184 185 186 186 186 187 189 192 195 199 203 207 209 212 212 210 206 201 196 190 188 188 190 194 200 208 214 217 220 221 221 222 228 225 224 233 242 247 251 260 274 288 300 308 314 319 324 327 328 327 324 321 321 322 324 326 330 334 337 338 339 339 338 337 337 336 336 336 336 336 337 337 338 338 338 338 338 337 337 337 337 337 337 337 337 337 337 336
188 188 187 186 186 185 185 186 186 186 185 183 182 182 182 183 184 185 186 187 189 191 193 195 197 199 202 205 208 208 206 201 196 191 188 186 186 188 191 197 203 208 212 217 221 222 225 218 218 224 230 225 231 245 255 262 278 295 306 314 321 327 330 329 326 323 321 321 323 325 329 332 336 338 339 339 339 338 337 337 336 336 336 337 338 338 339 339 339 339 338 338 338 338 338 338 338 338 338 338 337 337 337
188 187 187 186 186 185 184 184 184 184 182 181 180 180 181 182 184 185 187 189 190 192 192 193 194 194 195 198 202 204 202 197 192 189 188 187 188 190 192 195 199 204 207 212 217 222 225 223 223 226 229 225 228 240 255 267 283 298 310 319 327 331 333 330 325 322 321 322 324 328 331 335 338 339 340 339 339 338 337 337 337 337 338 338 339 339 340 340 339 339 339 339 339 339 338 338 338 338 338 338 338 338 337
188 187 187 186 185 185 184 184 183 181 180 178 178 178 180 182 184 187 189 191 192 192 192 191 190 189 189 192 196 200 200 196 191 189 189 189 189 191 193 194 197 201 206 211 216 220 222 228 231 233 235 239 243 250 262 282 299 311 320 327 333 335 334 328 323 321 322 324 327 331 334 337 339 340 340 339 339 338 338 338 338 339 339 339 340 340 340 340 340 340 339 339 339 339 339 339 339 339 339 338 338 338 337